Location: C.E.K. Mees Observatory
(42.7003°N, 77.4088°W)
Time: 12:12:22
(UTC-04:00)

Vanguard 3 - Pass Details

Date: 27 June 2018
Orbit: 508 x 3264 km, 33.3° (Epoch: 20 September)

Event Time Altitude Azimuth Distance (km) Brightness Sun altitude
Rises 02:46:42 0° 231° (SW) 2,655 - -20.5°
Reaches altitude 10° 02:48:58 10° 215° (SW) 1,880 - -20.3°
Maximum altitude 02:52:20 23° 161° (SSE) 1,433 - -20.1°
Exits shadow 02:53:04 23° 147° (SSE) 1,519 8.2 -20.0°
Drops below altitude 10° 02:56:50 10° 109° (ESE) 2,592 9.8 -19.8°
Sets 03:00:37 0° 97° (E) 3,984 10.9 -19.4°
